^^
Station Historical Data
Daily Summary for August 6, 2021 Units:  English    Metric   Both
Daily Weekly Monthly Yearly
  High: Low: Average:
Temperature: 78.5 °F 69.9 °F 74.2 °F
Dew Point: 70.5 °F 62.8 °F 66.6 °F
Humidity: 86% 65% 78%
Wind Speed: 5mph 0mph 1.9mph
Wind Gust: 11mph - -
Wind- - SE
Pressure: 29.99 in 29.89 in -
Precipitation: 0.00 in    
 
 
Tabular Data for August 6, 2021
Time Temperature Dew Point Pressure Wind Wind Speed Wind Gust Humidity Rainfall Rate (Hourly) solar
00:00 73.5 °F 66.9 °F 29.98 in NE 1 mph 2 mph 80% 0.00 in 0 W/m2
00:05 73.6 °F 67 °F 29.98 in NNE 2 mph 3 mph 80% 0.00 in 0 W/m2
00:10 73.8 °F 66.9 °F 29.98 in NE 2 mph 2 mph 79% 0.00 in 0 W/m2
00:15 73.9 °F 67.7 °F 29.98 in NNE 2 mph 2 mph 81% 0.00 in 0 W/m2
00:20 74 °F 67.4 °F 29.98 in NNE 2 mph 3 mph 80% 0.00 in 0 W/m2
00:25 74 °F 67.8 °F 29.98 in WNW 2 mph 3 mph 81% 0.00 in 0 W/m2
00:30 73.3 °F 66.8 °F 29.98 in NNE 1 mph 1 mph 80% 0.00 in 0 W/m2
00:35 73 °F 66.8 °F 29.98 in NW 1 mph 1 mph 81% 0.00 in 0 W/m2
00:40 72.8 °F 66.6 °F 29.98 in NE 1 mph 1 mph 81% 0.00 in 0 W/m2
00:45 72.8 °F 67 °F 29.98 in East 1 mph 1 mph 82% 0.00 in 0 W/m2
00:50 72.7 °F 66.9 °F 29.99 in NNE 1 mph 1 mph 82% 0.00 in 0 W/m2
00:55 72.7 °F 66.9 °F 29.99 in NNE 1 mph 2 mph 82% 0.00 in 0 W/m2
01:00 72.7 °F 67.2 °F 29.99 in NE 1 mph 1 mph 83% 0.00 in 0 W/m2
01:05 72.8 °F 67 °F 29.99 in ENE 1 mph 2 mph 82% 0.00 in 0 W/m2
01:10 73 °F 66.8 °F 29.99 in NNW 2 mph 2 mph 81% 0.00 in 0 W/m2
01:15 73.1 °F 67.3 °F 29.98 in NE 1 mph 2 mph 82% 0.00 in 0 W/m2
01:20 72.9 °F 67.1 °F 29.98 in NE 1 mph 1 mph 82% 0.00 in 0 W/m2
01:25 72.8 °F 67 °F 29.98 in East 1 mph 1 mph 82% 0.00 in 0 W/m2
01:30 72.8 °F 67 °F 29.99 in NE 1 mph 1 mph 82% 0.00 in 0 W/m2
01:35 72.8 °F 67 °F 29.99 in ENE 1 mph 1 mph 82% 0.00 in 0 W/m2
01:40 72.8 °F 67 °F 29.99 in NNE 1 mph 1 mph 82% 0.00 in 0 W/m2
01:45 73 °F 67.5 °F 29.99 in WNW 1 mph 1 mph 83% 0.00 in 0 W/m2
01:50 72.9 °F 67.1 °F 29.99 in NE 1 mph 1 mph 82% 0.00 in 0 W/m2
01:55 73 °F 67.2 °F 29.99 in NNW 1 mph 2 mph 82% 0.00 in 0 W/m2
02:00 73.2 °F 67 °F 29.98 in NE 1 mph 1 mph 81% 0.00 in 0 W/m2
02:05 73.3 °F 67.1 °F 29.98 in NW 2 mph 2 mph 81% 0.00 in 0 W/m2
02:10 73 °F 66.8 °F 29.98 in NE 1 mph 1 mph 81% 0.00 in 0 W/m2
02:15 72.8 °F 67.3 °F 29.98 in ENE 1 mph 2 mph 83% 0.00 in 0 W/m2
02:20 72.6 °F 67.1 °F 29.98 in North 1 mph 1 mph 83% 0.00 in 0 W/m2
02:25 72.4 °F 66.6 °F 29.98 in NE 1 mph 2 mph 82% 0.00 in 0 W/m2
02:30 72.4 °F 66.9 °F 29.98 in West 1 mph 2 mph 83% 0.00 in 0 W/m2
02:35 72.3 °F 66.8 °F 29.98 in NE 1 mph 2 mph 83% 0.00 in 0 W/m2
02:40 72 °F 66.9 °F 29.98 in NNW 1 mph 1 mph 84% 0.00 in 0 W/m2
02:45 71.9 °F 67.1 °F 29.98 in NNE 1 mph 1 mph 85% 0.00 in 0 W/m2
02:50 71.9 °F 66.8 °F 29.98 in NNE 1 mph 2 mph 84% 0.00 in 0 W/m2
02:55 71.9 °F 66.8 °F 29.98 in NW 1 mph 2 mph 84% 0.00 in 0 W/m2
03:00 71.6 °F 66.5 °F 29.98 in NW 1 mph 1 mph 84% 0.00 in 0 W/m2
03:05 71.4 °F 66.7 °F 29.98 in NNE 1 mph 2 mph 85% 0.00 in 0 W/m2
03:10 71.2 °F 66.5 °F 29.98 in ENE 1 mph 1 mph 85% 0.00 in 0 W/m2
03:15 71 °F 65.9 °F 29.97 in West 1 mph 2 mph 84% 0.00 in 0 W/m2
03:20 71 °F 66.3 °F 29.97 in NE 1 mph 2 mph 85% 0.00 in 0 W/m2
03:25 70.8 °F 66.1 °F 29.97 in NE 1 mph 2 mph 85% 0.00 in 0 W/m2
03:30 70.7 °F 66 °F 29.97 in East 1 mph 1 mph 85% 0.00 in 0 W/m2
03:35 70.6 °F 65.9 °F 29.97 in NE 1 mph 1 mph 85% 0.00 in 0 W/m2
03:40 70.6 °F 65.9 °F 29.97 in East 2 mph 2 mph 85% 0.00 in 0 W/m2
03:45 70.6 °F 65.9 °F 29.97 in NE 1 mph 2 mph 85% 0.00 in 0 W/m2
03:50 70.8 °F 66.1 °F 29.97 in NW 1 mph 1 mph 85% 0.00 in 0 W/m2
03:55 70.8 °F 66.1 °F 29.97 in North 1 mph 1 mph 85% 0.00 in 0 W/m2
04:00 70.7 °F 66.3 °F 29.97 in NNW 1 mph 2 mph 86% 0.00 in 0 W/m2
04:05 70.8 °F 66.4 °F 29.97 in NE 1 mph 2 mph 86% 0.00 in 0 W/m2
04:10 70.6 °F 65.9 °F 29.97 in NNE 2 mph 2 mph 85% 0.00 in 0 W/m2
04:15 70.7 °F 66 °F 29.97 in NNW 2 mph 2 mph 85% 0.00 in 0 W/m2
04:20 70.7 °F 66.3 °F 29.97 in NW 2 mph 4 mph 86% 0.00 in 0 W/m2
04:25 70.4 °F 65.7 °F 29.97 in NE 1 mph 4 mph 85% 0.00 in 0 W/m2
04:30 70.3 °F 65.9 °F 29.97 in North 1 mph 1 mph 86% 0.00 in 0 W/m2
04:35 70.3 °F 65.9 °F 29.97 in North 1 mph 2 mph 86% 0.00 in 0 W/m2
04:40 70.4 °F 66 °F 29.97 in West 1 mph 1 mph 86% 0.00 in 0 W/m2
04:45 70.3 °F 65.9 °F 29.97 in NNW 1 mph 2 mph 86% 0.00 in 0 W/m2
04:50 70.2 °F 65.8 °F 29.97 in NNE 1 mph 1 mph 86% 0.00 in 0 W/m2
04:55 70 °F 65.6 °F 29.97 in East 1 mph 1 mph 86% 0.00 in 0 W/m2
05:00 69.9 °F 65.5 °F 29.97 in East 1 mph 1 mph 86% 0.00 in 0 W/m2
05:05 69.9 °F 65.5 °F 29.96 in NNW 1 mph 1 mph 86% 0.00 in 0 W/m2
05:10 70 °F 65.6 °F 29.96 in ENE 1 mph 1 mph 86% 0.00 in 0 W/m2
05:15 69.9 °F 65.5 °F 29.97 in NE 1 mph 1 mph 86% 0.00 in 0 W/m2
05:20 70 °F 65.6 °F 29.97 in ENE 1 mph 3 mph 86% 0.00 in 0 W/m2
05:25 70.2 °F 65.1 °F 29.97 in NNE 2 mph 3 mph 84% 0.00 in 0 W/m2
05:30 70.4 °F 65 °F 29.97 in North 2 mph 2 mph 83% 0.00 in 0 W/m2
05:35 70.6 °F 64.8 °F 29.97 in NNE 2 mph 2 mph 82% 0.00 in 0 W/m2
05:40 70.5 °F 64.7 °F 29.97 in North 2 mph 2 mph 82% 0.00 in 0 W/m2
05:45 70.6 °F 65.2 °F 29.97 in NNE 2 mph 2 mph 83% 0.00 in 0 W/m2
05:50 70.5 °F 64.7 °F 29.97 in NE 2 mph 2 mph 82% 0.00 in 0 W/m2
05:55 70.5 °F 64.7 °F 29.97 in NE 2 mph 2 mph 82% 0.00 in 0 W/m2
06:00 70.4 °F 65 °F 29.97 in ENE 2 mph 2 mph 83% 0.00 in 0 W/m2
06:05 70.4 °F 64.6 °F 29.97 in North 2 mph 2 mph 82% 0.00 in 0 W/m2
06:10 70.4 °F 64.6 °F 29.97 in NE 2 mph 2 mph 82% 0.00 in 0 W/m2
06:15 70.3 °F 64.5 °F 29.97 in NNW 2 mph 2 mph 82% 0.00 in 0 W/m2
06:20 70.3 °F 64.2 °F 29.97 in NNW 2 mph 2 mph 81% 0.00 in 0 W/m2
06:25 70.3 °F 64.2 °F 29.97 in NE 2 mph 2 mph 81% 0.00 in 5 W/m2
06:30 70.3 °F 64.5 °F 29.97 in NNE 2 mph 2 mph 82% 0.00 in 7 W/m2
06:35 70.2 °F 64.1 °F 29.97 in NE 2 mph 2 mph 81% 0.00 in 9 W/m2
06:40 70.1 °F 64 °F 29.97 in NE 2 mph 2 mph 81% 0.00 in 11 W/m2
06:45 70 °F 63.5 °F 29.97 in NNE 2 mph 2 mph 80% 0.00 in 14 W/m2
06:50 70 °F 63.5 °F 29.97 in North 2 mph 2 mph 80% 0.00 in 18 W/m2
06:55 70 °F 63.5 °F 29.97 in NNE 2 mph 3 mph 80% 0.00 in 23 W/m2
07:00 70.1 °F 64 °F 29.97 in NE 2 mph 3 mph 81% 0.00 in 25 W/m2
07:05 70.3 °F 64.2 °F 29.97 in NNE 2 mph 3 mph 81% 0.00 in 30 W/m2
07:10 70.4 °F 63.9 °F 29.97 in NE 2 mph 2 mph 80% 0.00 in 32 W/m2
07:15 70.4 °F 63.9 °F 29.97 in North 2 mph 3 mph 80% 0.00 in 35 W/m2
07:20 70.5 °F 63.7 °F 29.97 in NNE 2 mph 2 mph 79% 0.00 in 40 W/m2
07:25 70.5 °F 63.7 °F 29.97 in NNE 2 mph 3 mph 79% 0.00 in 44 W/m2
07:30 70.5 °F 63.7 °F 29.97 in NE 2 mph 3 mph 79% 0.00 in 47 W/m2
07:35 70.6 °F 64.1 °F 29.97 in NE 2 mph 3 mph 80% 0.00 in 56 W/m2
07:40 70.5 °F 63.3 °F 29.97 in NE 2 mph 2 mph 78% 0.00 in 62 W/m2
07:45 70.5 °F 63.3 °F 29.98 in ENE 2 mph 2 mph 78% 0.00 in 63 W/m2
07:50 70.4 °F 63.2 °F 29.98 in NNE 2 mph 2 mph 78% 0.00 in 74 W/m2
07:55 70.4 °F 62.8 °F 29.98 in NNE 2 mph 2 mph 77% 0.00 in 74 W/m2
08:00 70.4 °F 63.2 °F 29.98 in NE 2 mph 3 mph 78% 0.00 in 77 W/m2
08:05 70.4 °F 62.8 °F 29.98 in NNE 2 mph 3 mph 77% 0.00 in 88 W/m2
08:10 70.4 °F 62.8 °F 29.98 in North 2 mph 3 mph 77% 0.00 in 104 W/m2
08:15 70.6 °F 64.1 °F 29.98 in NNE 2 mph 3 mph 80% 0.00 in 149 W/m2
08:20 70.5 °F 64.4 °F 29.98 in ESE 2 mph 2 mph 81% 0.00 in 137 W/m2
08:25 70.2 °F 63 °F 29.98 in NE 2 mph 2 mph 78% 0.00 in 148 W/m2
08:30 70.5 °F 63.7 °F 29.98 in NNW 2 mph 2 mph 79% 0.00 in 130 W/m2
08:35 70.7 °F 63.5 °F 29.98 in NNE 2 mph 3 mph 78% 0.00 in 144 W/m2
08:40 70.9 °F 63.3 °F 29.98 in NE 2 mph 2 mph 77% 0.00 in 169 W/m2
08:45 71 °F 63.8 °F 29.98 in NNW 2 mph 2 mph 78% 0.00 in 178 W/m2
08:50 71.2 °F 63.6 °F 29.98 in NNE 2 mph 2 mph 77% 0.00 in 234 W/m2
08:55 71.4 °F 63.8 °F 29.97 in ENE 2 mph 2 mph 77% 0.00 in 213 W/m2
09:00 71.6 °F 64 °F 29.97 in NNE 2 mph 2 mph 77% 0.00 in 183 W/m2
09:05 71.7 °F 64.1 °F 29.97 in NE 2 mph 2 mph 77% 0.00 in 169 W/m2
09:10 71.9 °F 63.5 °F 29.97 in ENE 2 mph 2 mph 75% 0.00 in 193 W/m2
09:15 72 °F 64 °F 29.97 in NE 2 mph 2 mph 76% 0.00 in 220 W/m2
09:20 72.3 °F 64.3 °F 29.97 in NNE 2 mph 2 mph 76% 0.00 in 318 W/m2
09:25 72.5 °F 64.5 °F 29.97 in North 2 mph 3 mph 76% 0.00 in 295 W/m2
09:30 72.7 °F 64.3 °F 29.98 in NE 2 mph 2 mph 75% 0.00 in 387 W/m2
09:35 72.9 °F 64.9 °F 29.98 in SW 2 mph 2 mph 76% 0.00 in 195 W/m2
09:40 72.8 °F 64 °F 29.98 in South 2 mph 3 mph 74% 0.00 in 195 W/m2
09:45 73 °F 63.8 °F 29.98 in SSW 3 mph 3 mph 73% 0.00 in 220 W/m2
09:50 73.1 °F 63.9 °F 29.98 in SW 3 mph 3 mph 73% 0.00 in 244 W/m2
09:55 73.2 °F 63.2 °F 29.98 in ESE 2 mph 3 mph 71% 0.00 in 229 W/m2
10:00 73.3 °F 63.7 °F 29.98 in ESE 2 mph 2 mph 72% 0.00 in 237 W/m2
10:05 73.2 °F 64 °F 29.97 in East 2 mph 2 mph 73% 0.00 in 172 W/m2
10:10 73.1 °F 64.3 °F 29.97 in SSE 2 mph 2 mph 74% 0.00 in 111 W/m2
10:15 73 °F 63.8 °F 29.97 in SSW 2 mph 3 mph 73% 0.00 in 95 W/m2
10:20 73 °F 64.2 °F 29.97 in South 2 mph 2 mph 74% 0.00 in 104 W/m2
10:25 73 °F 64.6 °F 29.97 in NE 2 mph 2 mph 75% 0.00 in 98 W/m2
10:30 72.8 °F 64.4 °F 29.97 in SW 2 mph 2 mph 75% 0.00 in 84 W/m2
10:35 72.8 °F 64.8 °F 29.97 in NE 1 mph 2 mph 76% 0.00 in 93 W/m2
10:40 72.8 °F 63.6 °F 29.97 in NE 1 mph 2 mph 73% 0.00 in 102 W/m2
10:45 72.9 °F 64.5 °F 29.97 in SE 2 mph 2 mph 75% 0.00 in 107 W/m2
10:50 72.8 °F 64.8 °F 29.97 in ESE 2 mph 2 mph 76% 0.00 in 113 W/m2
10:55 72.8 °F 64.8 °F 29.97 in NW 1 mph 2 mph 76% 0.00 in 155 W/m2
11:00 72.6 °F 65.3 °F 29.97 in NNW 1 mph 2 mph 78% 0.00 in 141 W/m2
11:05 72.6 °F 64.6 °F 29.97 in NNW 1 mph 2 mph 76% 0.00 in 137 W/m2
11:10 72.6 °F 65.3 °F 29.97 in NE 2 mph 2 mph 78% 0.00 in 151 W/m2
11:15 72.8 °F 65.5 °F 29.97 in NNE 2 mph 2 mph 78% 0.00 in 163 W/m2
11:20 73 °F 65 °F 29.97 in North 2 mph 2 mph 76% 0.00 in 206 W/m2
11:25 73.3 °F 64.9 °F 29.97 in North 2 mph 2 mph 75% 0.00 in 271 W/m2
11:30 73.6 °F 65.2 °F 29.97 in North 2 mph 2 mph 75% 0.00 in 269 W/m2
11:35 73.9 °F 65.9 °F 29.97 in NNW 2 mph 2 mph 76% 0.00 in 243 W/m2
11:40 74.1 °F 66 °F 29.97 in NNW 2 mph 2 mph 76% 0.00 in 199 W/m2
11:45 74.2 °F 66.1 °F 29.97 in NNE 2 mph 2 mph 76% 0.00 in 179 W/m2
11:50 74.3 °F 65.5 °F 29.97 in NNE 2 mph 2 mph 74% 0.00 in 213 W/m2
11:55 74.6 °F 65.4 °F 29.97 in WNW 2 mph 2 mph 73% 0.00 in 290 W/m2
12:00 74.8 °F 66 °F 29.97 in NE 2 mph 2 mph 74% 0.00 in 302 W/m2
12:05 74.9 °F 64.9 °F 29.97 in NNE 2 mph 2 mph 71% 0.00 in 241 W/m2
12:10 75 °F 65.8 °F 29.97 in NNE 2 mph 2 mph 73% 0.00 in 330 W/m2
12:15 75.1 °F 65.9 °F 29.97 in NNE 2 mph 2 mph 73% 0.00 in 371 W/m2
12:20 75.3 °F 66 °F 29.97 in WSW 1 mph 2 mph 73% 0.00 in 302 W/m2
12:25 75.3 °F 65.6 °F 29.97 in South 1 mph 3 mph 72% 0.00 in 348 W/m2
12:30 75.4 °F 66.5 °F 29.97 in ENE 2 mph 2 mph 74% 0.00 in 366 W/m2
12:35 75.4 °F 66.1 °F 29.97 in South 1 mph 4 mph 73% 0.00 in 373 W/m2
12:40 75.5 °F 65.8 °F 29.96 in NE 2 mph 2 mph 72% 0.00 in 306 W/m2
12:45 75.5 °F 64.6 °F 29.96 in ENE 2 mph 3 mph 69% 0.00 in 269 W/m2
12:50 75.5 °F 64.2 °F 29.96 in East 2 mph 3 mph 68% 0.00 in 336 W/m2
12:55 75.7 °F 64.8 °F 29.96 in ENE 2 mph 3 mph 69% 0.00 in 334 W/m2
13:00 75.7 °F 64.4 °F 29.96 in ESE 2 mph 2 mph 68% 0.00 in 366 W/m2
13:05 75.7 °F 64.8 °F 29.96 in North 2 mph 2 mph 69% 0.00 in 357 W/m2
13:10 75.8 °F 64.9 °F 29.96 in SW 2 mph 4 mph 69% 0.00 in 459 W/m2
13:15 76 °F 65.9 °F 29.96 in East 2 mph 4 mph 71% 0.00 in 703 W/m2
13:20 76 °F 65.5 °F 29.96 in ENE 2 mph 2 mph 70% 0.00 in 274 W/m2
13:25 75.9 °F 65.8 °F 29.96 in East 2 mph 3 mph 71% 0.00 in 241 W/m2
13:30 75.9 °F 65.8 °F 29.96 in South 2 mph 3 mph 71% 0.00 in 257 W/m2
13:35 75.9 °F 66.2 °F 29.96 in ESE 2 mph 3 mph 72% 0.00 in 227 W/m2
13:40 76 °F 66.7 °F 29.96 in SSW 2 mph 2 mph 73% 0.00 in 206 W/m2
13:45 76 °F 66.3 °F 29.95 in SE 2 mph 2 mph 72% 0.00 in 214 W/m2
13:50 76 °F 65.9 °F 29.95 in SW 2 mph 2 mph 71% 0.00 in 218 W/m2
13:55 76.1 °F 66.8 °F 29.95 in ESE 2 mph 2 mph 73% 0.00 in 304 W/m2
14:00 76.2 °F 66.5 °F 29.95 in ENE 2 mph 2 mph 72% 0.00 in 350 W/m2
14:05 76.3 °F 66.6 °F 29.95 in SW 1 mph 3 mph 72% 0.00 in 392 W/m2
14:10 76.7 °F 67 °F 29.94 in ENE 1 mph 1 mph 72% 0.00 in 703 W/m2
14:15 77.1 °F 67.4 °F 29.94 in ENE 2 mph 2 mph 72% 0.00 in 557 W/m2
14:20 77.4 °F 68.1 °F 29.94 in East 2 mph 2 mph 73% 0.00 in 642 W/m2
14:25 77.6 °F 65.8 °F 29.94 in East 2 mph 2 mph 67% 0.00 in 633 W/m2
14:30 77.7 °F 65 °F 29.93 in South 2 mph 7 mph 65% 0.00 in 661 W/m2
14:35 77.7 °F 65.9 °F 29.93 in ESE 3 mph 7 mph 67% 0.00 in 325 W/m2
14:40 77.5 °F 65.7 °F 29.93 in NE 3 mph 3 mph 67% 0.00 in 322 W/m2
14:45 77.6 °F 66.2 °F 29.93 in NE 3 mph 3 mph 68% 0.00 in 316 W/m2
14:50 77.6 °F 66.2 °F 29.93 in East 3 mph 3 mph 68% 0.00 in 309 W/m2
14:55 77.6 °F 66.2 °F 29.93 in WSW 2 mph 4 mph 68% 0.00 in 394 W/m2
15:00 77.6 °F 66.6 °F 29.93 in NNE 2 mph 4 mph 69% 0.00 in 432 W/m2
15:05 77.7 °F 66.3 °F 29.93 in West 2 mph 4 mph 68% 0.00 in 350 W/m2
15:10 77.7 °F 66.7 °F 29.93 in SSW 2 mph 4 mph 69% 0.00 in 255 W/m2
15:15 77.6 °F 66.2 °F 29.92 in NW 3 mph 4 mph 68% 0.00 in 214 W/m2
15:20 77.6 °F 66.2 °F 29.92 in SSW 3 mph 7 mph 68% 0.00 in 285 W/m2
15:25 77.8 °F 66.8 °F 29.92 in East 3 mph 7 mph 69% 0.00 in 380 W/m2
15:30 77.8 °F 67.6 °F 29.92 in ESE 2 mph 2 mph 71% 0.00 in 304 W/m2
15:35 77.7 °F 67.1 °F 29.92 in SW 2 mph 3 mph 70% 0.00 in 243 W/m2
15:40 77.6 °F 66.2 °F 29.92 in East 2 mph 2 mph 68% 0.00 in 178 W/m2
15:45 77.6 °F 67 °F 29.92 in SSW 4 mph 5 mph 70% 0.00 in 267 W/m2
15:50 77.6 °F 67 °F 29.92 in SSW 5 mph 11 mph 70% 0.00 in 308 W/m2
15:55 77.6 °F 66.6 °F 29.92 in South 5 mph 11 mph 69% 0.00 in 251 W/m2
16:00 77.5 °F 67.8 °F 29.92 in SSE 4 mph 4 mph 72% 0.00 in 176 W/m2
16:05 77.4 °F 67.7 °F 29.91 in SW 4 mph 4 mph 72% 0.00 in 185 W/m2
16:10 77.3 °F 67.2 °F 29.92 in NW 3 mph 3 mph 71% 0.00 in 130 W/m2
16:15 77.2 °F 66.2 °F 29.91 in WSW 3 mph 3 mph 69% 0.00 in 139 W/m2
16:20 77.3 °F 65.9 °F 29.91 in SW 4 mph 5 mph 68% 0.00 in 250 W/m2
16:25 77.3 °F 66.3 °F 29.91 in East 4 mph 5 mph 69% 0.00 in 401 W/m2
16:30 77.4 °F 66 °F 29.92 in North 4 mph 4 mph 68% 0.00 in 338 W/m2
16:35 77.5 °F 66.5 °F 29.91 in SSW 5 mph 5 mph 69% 0.00 in 475 W/m2
16:40 77.7 °F 67.1 °F 29.91 in NNW 5 mph 5 mph 70% 0.00 in 425 W/m2
16:45 77.6 °F 66.6 °F 29.91 in South 5 mph 7 mph 69% 0.00 in 306 W/m2
16:50 77.6 °F 67.9 °F 29.91 in SW 5 mph 5 mph 72% 0.00 in 399 W/m2
16:55 77.7 °F 68 °F 29.91 in SW 5 mph 7 mph 72% 0.00 in 504 W/m2
17:00 77.9 °F 68.5 °F 29.91 in SW 5 mph 5 mph 73% 0.00 in 366 W/m2
17:05 77.9 °F 68.1 °F 29.91 in SW 5 mph 5 mph 72% 0.00 in 424 W/m2
17:10 78.1 °F 68.3 °F 29.91 in SSW 4 mph 4 mph 72% 0.00 in 668 W/m2
17:15 78.4 °F 68.6 °F 29.91 in SSW 4 mph 4 mph 72% 0.00 in 592 W/m2
17:20 78.5 °F 68.3 °F 29.91 in WSW 4 mph 4 mph 71% 0.00 in 475 W/m2
17:25 78.4 °F 68.2 °F 29.91 in SSW 4 mph 4 mph 71% 0.00 in 294 W/m2
17:30 78.3 °F 68.1 °F 29.91 in South 4 mph 5 mph 71% 0.00 in 552 W/m2
17:35 78.1 °F 67.1 °F 29.91 in SW 4 mph 5 mph 69% 0.00 in 482 W/m2
17:40 77.9 °F 66.9 °F 29.91 in SSW 3 mph 3 mph 69% 0.00 in 153 W/m2
17:45 77.8 °F 67.2 °F 29.91 in SSW 3 mph 4 mph 70% 0.00 in 292 W/m2
17:50 77.7 °F 67.5 °F 29.91 in SW 3 mph 3 mph 71% 0.00 in 287 W/m2
17:55 77.8 °F 68 °F 29.91 in SSW 3 mph 4 mph 72% 0.00 in 492 W/m2
18:00 78 °F 67.8 °F 29.91 in SSE 3 mph 3 mph 71% 0.00 in 455 W/m2
18:05 78.2 °F 68.8 °F 29.91 in SW 3 mph 3 mph 73% 0.00 in 371 W/m2
18:10 78.1 °F 68.3 °F 29.91 in SSW 3 mph 3 mph 72% 0.00 in 114 W/m2
18:15 77.9 °F 68.9 °F 29.91 in SW 3 mph 3 mph 74% 0.00 in 67 W/m2
18:20 77.8 °F 69.2 °F 29.91 in South 3 mph 3 mph 75% 0.00 in 47 W/m2
18:25 77.6 °F 69.4 °F 29.91 in West 2 mph 3 mph 76% 0.00 in 62 W/m2
18:30 77.6 °F 69.4 °F 29.91 in SSW 2 mph 3 mph 76% 0.00 in 86 W/m2
18:35 77.4 °F 69.6 °F 29.91 in South 2 mph 5 mph 77% 0.00 in 86 W/m2
18:40 77.4 °F 70 °F 29.91 in SSE 2 mph 2 mph 78% 0.00 in 142 W/m2
18:45 77.5 °F 70.5 °F 29.90 in WSW 2 mph 3 mph 79% 0.00 in 153 W/m2
18:50 77.4 °F 70 °F 29.90 in WSW 2 mph 2 mph 78% 0.00 in 218 W/m2
18:55 77.4 °F 70 °F 29.90 in West 2 mph 2 mph 78% 0.00 in 176 W/m2
19:00 77.5 °F 70.1 °F 29.90 in NW 2 mph 2 mph 78% 0.00 in 142 W/m2
19:05 77.5 °F 69.7 °F 29.90 in SSW 2 mph 2 mph 77% 0.00 in 83 W/m2
19:10 77.4 °F 68.9 °F 29.90 in NW 2 mph 2 mph 75% 0.00 in 86 W/m2
19:15 77.3 °F 68.4 °F 29.89 in WSW 1 mph 2 mph 74% 0.00 in 65 W/m2
19:20 77.4 °F 68.5 °F 29.89 in WNW 1 mph 1 mph 74% 0.00 in 56 W/m2
19:25 77.3 °F 68.8 °F 29.89 in NE 2 mph 2 mph 75% 0.00 in 70 W/m2
19:30 77.4 °F 68.9 °F 29.89 in SSE 1 mph 1 mph 75% 0.00 in 54 W/m2
19:35 77.4 °F 68.9 °F 29.89 in South 1 mph 1 mph 75% 0.00 in 46 W/m2
19:40 77.4 °F 69.2 °F 29.89 in South 1 mph 2 mph 76% 0.00 in 51 W/m2
19:45 77.4 °F 69.6 °F 29.89 in South 1 mph 2 mph 77% 0.00 in 69 W/m2
19:50 77.3 °F 69.9 °F 29.89 in South 1 mph 1 mph 78% 0.00 in 69 W/m2
19:55 77.3 °F 69.9 °F 29.89 in Calm   1 mph 78% 0.00 in 63 W/m2
20:00 77.2 °F 70.2 °F 29.89 in Calm     79% 0.00 in 53 W/m2
20:05 77.2 °F 70.2 °F 29.89 in Calm     79% 0.00 in 37 W/m2
20:10 77 °F 70 °F 29.89 in Calm   1 mph 79% 0.00 in 28 W/m2
20:15 76.9 °F 70.3 °F 29.90 in Calm   1 mph 80% 0.00 in 25 W/m2
20:20 76.8 °F 70.2 °F 29.89 in Calm   1 mph 80% 0.00 in 23 W/m2
20:25 76.7 °F 70.1 °F 29.89 in Calm   1 mph 80% 0.00 in 19 W/m2
20:30 76.6 °F 70.3 °F 29.89 in WNW 1 mph 1 mph 81% 0.00 in 12 W/m2
20:35 76.6 °F 70 °F 29.89 in Calm   1 mph 80% 0.00 in 7 W/m2
20:40 76.5 °F 69.9 °F 29.90 in Calm     80% 0.00 in 5 W/m2
20:45 76.5 °F 69.9 °F 29.90 in Calm     80% 0.00 in 5 W/m2
20:50 76.4 °F 69.8 °F 29.90 in Calm     80% 0.00 in 0 W/m2
20:55 76.4 °F 69.8 °F 29.90 in Calm     80% 0.00 in 0 W/m2
21:00 76.2 °F 69.6 °F 29.90 in Calm   1 mph 80% 0.00 in 0 W/m2
21:05 76.1 °F 69.5 °F 29.90 in Calm   1 mph 80% 0.00 in 0 W/m2
21:10 76 °F 69.4 °F 29.90 in Calm   1 mph 80% 0.00 in 0 W/m2
21:15 75.8 °F 69.2 °F 29.90 in Calm   1 mph 80% 0.00 in 0 W/m2
21:20 75.7 °F 69.5 °F 29.90 in Calm   1 mph 81% 0.00 in 0 W/m2
21:25 75.5 °F 69.3 °F 29.90 in Calm   1 mph 81% 0.00 in 0 W/m2
21:30 75.4 °F 69.2 °F 29.91 in Calm     81% 0.00 in 0 W/m2
21:35 75.3 °F 69.1 °F 29.91 in Calm     81% 0.00 in 0 W/m2
21:40 75.1 °F 68.9 °F 29.91 in Calm     81% 0.00 in 0 W/m2
21:45 75 °F 69.1 °F 29.91 in Calm     82% 0.00 in 0 W/m2
21:50 75.1 °F 70.3 °F 29.91 in NE 1 mph 1 mph 85% 0.00 in 0 W/m2
21:55 75.2 °F 70 °F 29.91 in ENE 1 mph 2 mph 84% 0.00 in 0 W/m2
22:00 75.5 °F 69.3 °F 29.91 in NNE 1 mph 1 mph 81% 0.00 in 0 W/m2
22:05 75.9 °F 70 °F 29.91 in North 2 mph 2 mph 82% 0.00 in 0 W/m2
22:10 75.9 °F 69.6 °F 29.91 in NE 2 mph 2 mph 81% 0.00 in 0 W/m2
22:15 75.8 °F 69.2 °F 29.92 in East 2 mph 2 mph 80% 0.00 in 0 W/m2
22:20 75.8 °F 69.2 °F 29.92 in South 2 mph 5 mph 80% 0.00 in 0 W/m2
22:25 75.8 °F 69.6 °F 29.92 in NNE 2 mph 5 mph 81% 0.00 in 0 W/m2
22:30 75.6 °F 69.4 °F 29.92 in East 2 mph 2 mph 81% 0.00 in 0 W/m2
22:35 75.5 °F 69.3 °F 29.92 in NNW 2 mph 2 mph 81% 0.00 in 0 W/m2
22:40 75.5 °F 69.3 °F 29.92 in SSW 2 mph 6 mph 81% 0.00 in 0 W/m2
22:45 75.6 °F 69.4 °F 29.92 in WSW 2 mph 6 mph 81% 0.00 in 0 W/m2
22:50 75.4 °F 68.4 °F 29.92 in NNE 2 mph 2 mph 79% 0.00 in 0 W/m2
22:55 75.5 °F 68.5 °F 29.93 in SSE 3 mph 4 mph 79% 0.00 in 0 W/m2
23:00 75.6 °F 68.3 °F 29.93 in South 3 mph 3 mph 78% 0.00 in 0 W/m2
23:05 75.5 °F 68.2 °F 29.92 in West 3 mph 3 mph 78% 0.00 in 0 W/m2
23:10 75.5 °F 68.5 °F 29.93 in South 3 mph 5 mph 79% 0.00 in 0 W/m2
23:15 75.4 °F 68.8 °F 29.92 in ENE 3 mph 5 mph 80% 0.00 in 0 W/m2
23:20 75.3 °F 68.7 °F 29.92 in NE 2 mph 2 mph 80% 0.00 in 0 W/m2
23:25 75.1 °F 68.5 °F 29.92 in ESE 2 mph 2 mph 80% 0.00 in 0 W/m2
23:30 75 °F 68 °F 29.92 in SSE 2 mph 5 mph 79% 0.00 in 0 W/m2
23:35 75 °F 68 °F 29.92 in SE 3 mph 5 mph 79% 0.00 in 0 W/m2
23:40 75 °F 68 °F 29.92 in SE 3 mph 3 mph 79% 0.00 in 0 W/m2
23:45 75 °F 68 °F 29.92 in North 2 mph 3 mph 79% 0.00 in 0 W/m2
23:50 74.8 °F 68.6 °F 29.92 in SSW 2 mph 2 mph 81% 0.00 in 0 W/m2
23:55 74.6 °F 68.7 °F 29.92 in ENE 2 mph 2 mph 82% 0.00 in 0 W/m2
Sand Point, Michigan, USA
Compliments of Weather Underground - 2 mb